Regional Weather Roundup
Issued by NWS

Home | Current Version | Previous Version | Graphics & Text | Print | Product List | Glossary On
Versions: 1 2 3 4 5 6 7 8 9 10 11 12 13 14 15 16 17 18 19 20 21 22 23 24 25 26 27 28 29 30 31 32 33 34 35 36 37 38 39 40 41 42 43 44 45 46 47 48 49 50
000
ASUS43 KOAX 272010
RWRNE

WEATHER ROUNDUP FOR NEBRASKA
NATIONAL WEATHER SERVICE OMAHA NE
300 PM CDT FRI MAY 27 2016

NOTES: SATELLITE DATA IS BEING USED TO AUGMENT CLOUD COVER ABOVE
       12000 FEET.
       "FAIR" INDICATES FEW OR NO CLOUDS BELOW 12,000 FEET WITH NO
       SIGNIFICANT WEATHER AND/OR OBSTRUCTIONS TO VISIBILITY.

  * THESE STATIONS DO NOT REPORT WEATHER SUCH AS RAIN...SNOW OR FOG.

NEZ001>004-019>022-054>056-272100-
NEBRASKA PANHANDLE

CITY           SKY/WX    TMP DP  RH WIND       PRES   REMARKS
SCOTTSBLUFF    CLOUDY    57  44  62 E10       29.90R
ALLIANCE       LGT RAIN  55  50  83 NE12      29.87F
CHADRON        CLOUDY    58  49  72 NE7       29.88R
KIMBALL        LGT RAIN  50  45  83 NE12      29.93R
SIDNEY         CLOUDY    55  46  71 N18G25    29.89R
$$

NEZ057>060-069>072-079>082-272100-
SOUTHWEST NEBRASKA

CITY           SKY/WX    TMP DP  RH WIND       PRES   REMARKS
NORTH PLATTE   LGT RAIN  61  53  75 NE14      29.80R
IMPERIAL       CLOUDY    59  52  77 NE12      29.79R THUNDER
LEXINGTON      CLOUDY    63  56  77 E6        29.77S
MCCOOK         CLOUDY    61  57  87 NE14      29.76F
OGALLALA       LGT RAIN  56  51  80 NE17G23   29.83R
$$

NEZ005>010-023>029-035>040-094-272100-
NORTH CENTRAL NEBRASKA

CITY           SKY/WX    TMP DP  RH WIND       PRES   REMARKS
VALENTINE      CLOUDY    66  48  52 NE12      29.83F
AINSWORTH      CLOUDY    63  51  64 NE12      29.82F
BROKEN BOW     LGT RAIN  65  59  81 NE9       29.77F
O`NEILL        PTSUNNY   68  57  68 N9        29.80R
ORD            CLOUDY    70  56  61 VRB3      29.76F
THEDFORD       LGT RAIN  60  53  75 NE12      29.83F
$$

NEZ041-046>049-061>064-073>077-083>087-272100-
SOUTH CENTRAL NEBRASKA

CITY           SKY/WX    TMP DP  RH WIND       PRES   REMARKS
GRAND ISLAND   MOSUNNY   69  60  73 NE7       29.74F
AURORA         PTSUNNY   70  59  67 E7        29.73F
HASTINGS       CLOUDY    68  58  70 E9        29.73F
HEBRON         CLOUDY    70  60  72 E9        29.71F
HOLDREGE       CLOUDY    64  57  77 E10       29.75F
KEARNEY *      CLOUDY    66  57  72 E8        29.75F
YORK           MOSUNNY   70  59  68 E7        29.74F
$$

NEZ011>018-030>034-042>045-272100-
NORTHEAST NEBRASKA

CITY           SKY/WX    TMP DP  RH WIND       PRES   REMARKS
NORFOLK        CLOUDY    72  56  57 S8        29.75F
ALBION         PTSUNNY   72  55  55 CALM      29.74F
BLAIR          MOSUNNY   76  60  56 SW5       29.74F
FREMONT        MOSUNNY   74  59  59 CALM      29.74F
TEKAMAH        PTSUNNY   78  56  46 S7        29.73F
WAYNE          CLOUDY    73  59  62 SW5       29.75S
$$

NEZ050>053-065>068-078-088>093-272100-
SOUTHEAST NEBRASKA

CITY           SKY/WX    TMP DP  RH WIND       PRES   REMARKS
LINCOLN        MOSUNNY   76  59  55 VRB3      29.74F
OMAHA EPPLEY   PTSUNNY   76  61  59 E7        29.73F
BEATRICE       PTSUNNY   74  62  64 E6        29.72F
FALLS CITY     MOSUNNY   77  64  64 CALM      29.72F
NEBRASKA CITY  PTSUNNY   74  62  66 NE5       29.74F
PLATTSMOUTH    MOSUNNY   76  62  61 CALM      29.74F
$$

NEZ044-045-051>053-067-272100-
OMAHA AREA

CITY           SKY/WX    TMP DP  RH WIND       PRES   REMARKS
OMAHA EPPLEY   PTSUNNY   76  61  59 E7        29.73F
BLAIR          MOSUNNY   76  60  56 SW5       29.74F
FREMONT        MOSUNNY   74  59  59 CALM      29.74F
MILLARD        MOSUNNY   76  60  58 CALM      29.73F
OFFUTT AFB     SUNNY     75  61  61 VRB6      29.73F
PLATTSMOUTH    MOSUNNY   76  62  61 CALM      29.74F
WAHOO          FAIR      75  59  58 W3        29.73F
$$




USA.gov is the U.S. government's official web portal to all federal, state and local government web resources and services.